,,Stat6,,Stat2,,Stat8,,Stat9,,Stat10,,Wind1,,Wind1,
time,status,PA1M_AVG,status,PR1M_SUM,status,RH1M_AVG,status,SR1M_AVG,status,TA1M_AVG,status,W1dAve1m,status,W1sAve1m,
2009-01-04, 00:00:00,VALID,918.052,VALID,0,VALID,100,VALID,-0.0339617,VALID,19.2641,VALID,130,VALID,0,
2009-01-04, 00:01:00,VALID,918.033,VALID,0,VALID,100,VALID,-0.0169808,VALID,19.2703,VALID,130,VALID,0,
2009-01-04, 00:02:00,VALID,918.018,VALID,0,VALID,100,VALID,-0.0339617,VALID,19.2838,VALID,130,VALID,0,
2009-01-04, 00:03:00,VALID,918,VALID,0,VALID,100,VALID,-0.0339617,VALID,19.2835,VALID,130,VALID,0,
2009-01-04, 00:04:00,VALID,917.971,VALID,0,VALID,100,VALID,0,VALID,19.2676,VALID,130,VALID,0,
2009-01-04, 00:05:00,VALID,917.965,VALID,0,VALID,100,VALID,-0.0339617,VALID,19.2573,VALID,130,VALID,0,
2009-01-04, 00:06:00,VALID,917.954,VALID,0,VALID,100,VALID,-0.0339617,VALID,19.2706,VALID,130,VALID,0,
2009-01-04, 00:07:00,VALID,917.947,VALID,0,VALID,100,VALID,-0.0339617,VALID,19.2835,VALID,130,VALID,0,
2009-01-04, 00:08:00,VALID,917.964,VALID,0,VALID,100,VALID,-0.0169808,VALID,19.2801,VALID,130,VALID,0,
2009-01-04, 00:09:00,VALID,917.946,VALID,0,VALID,100,VALID,-0.0509425,VALID,19.2873,VALID,130,VALID,0,
2009-01-04, 00:10:00,VALID,917.938,VALID,0,VALID,100,VALID,-0.0679233,VALID,19.2803,VALID,158,VALID,0,
2009-01-04, 00:11:00,VALID,917.918,VALID,0,VALID,100,VALID,-0.0339617,VALID,19.2835,VALID,173,VALID,0,
2009-01-04, 00:12:00,VALID,917.899,VALID,0,VALID,100,VALID,-0.0339617,VALID,19.2835,VALID,174,VALID,0,
2009-01-04, 00:13:00,VALID,917.895,VALID,0,VALID,100,VALID,-0.0509425,VALID,19.3002,VALID,177,VALID,0,
2009-01-04, 00:14:00,VALID,917.878,VALID,0,VALID,100,VALID,-0.0849042,VALID,19.3097,VALID,177,VALID,0,
2009-01-04, 00:15:00,VALID,917.872,VALID,0,VALID,100,VALID,-0.0509425,VALID,19.3225,VALID,177,VALID,0,
2009-01-04, 00:16:00,VALID,917.87,VALID,0,VALID,100,VALID,-0.0339617,VALID,19.3387,VALID,177,VALID,0,
2009-01-04, 00:17:00,VALID,917.853,VALID,0,VALID,100,VALID,-0.0339617,VALID,19.3619,VALID,177,VALID,0,
2009-01-04, 00:18:00,VALID,917.85,VALID,0,VALID,100,VALID,-0.0339617,VALID,19.3716,VALID,177,VALID,0,
2009-01-04, 00:19:00,VALID,917.843,VALID,0,VALID,100,VALID,-0.0509425,VALID,19.3684,VALID,177,VALID,0,
2009-01-04, 00:20:00,VALID,917.849,VALID,0,VALID,100,VALID,-0.0679233,VALID,19.3457,VALID,177,VALID,0,
2009-01-04, 00:21:00,VALID,917.823,VALID,0,VALID,100,VALID,-0.0509425,VALID,19.3257,VALID,177,VALID,0,
2009-01-04, 00:22:00,VALID,917.818,VALID,0,VALID,100,VALID,-0.0169808,VALID,19.313,VALID,177,VALID,0,
2009-01-04, 00:23:00,VALID,917.822,VALID,0,VALID,100,VALID,-0.0509425,VALID,19.284,VALID,177,VALID,0,
2009-01-04, 00:24:00,VALID,917.821,VALID,0,VALID,100,VALID,-0.0509425,VALID,19.2678,VALID,177,VALID,0,
2009-01-04, 00:25:00,VALID,917.821,VALID,0,VALID,100,VALID,-0.0509425,VALID,19.271,VALID,177,VALID,0,
2009-01-04, 00:26:00,VALID,917.821,VALID,0,VALID,100,VALID,-0.0509425,VALID,19.284,VALID,177,VALID,0,
2009-01-04, 00:27:00,VALID,917.812,VALID,0,VALID,100,VALID,-0.0339617,VALID,19.2773,VALID,177,VALID,0,
2009-01-04, 00:28:00,VALID,917.815,VALID,0,VALID,100,VALID,-0.0509425,VALID,19.2713,VALID,177,VALID,0,
2009-01-04, 00:29:00,VALID,917.805,VALID,0,VALID,100,VALID,-0.0339617,VALID,19.2451,VALID,177,VALID,0,
2009-01-04, 00:30:00,VALID,917.805,VALID,0,VALID,100,VALID,-0.0169808,VALID,19.2286,VALID,177,VALID,0,
2009-01-04, 00:31:00,VALID,917.812,VALID,0,VALID,100,VALID,-0.0679233,VALID,19.2124,VALID,177,VALID,0,
2009-01-04, 00:32:00,VALID,917.82,VALID,0,VALID,100,VALID,-0.0849042,VALID,19.1865,VALID,177,VALID,0,
2009-01-04, 00:33:00,VALID,917.799,VALID,0,VALID,100,VALID,-0.0339617,VALID,19.1802,VALID,177,VALID,0,
2009-01-04, 00:34:00,VALID,917.803,VALID,0,VALID,100,VALID,-0.0679233,VALID,19.1702,VALID,177,VALID,0,
2009-01-04, 00:35:00,VALID,917.818,VALID,0,VALID,100,VALID,-0.0509425,VALID,19.177,VALID,177,VALID,0,
2009-01-04, 00:36:00,VALID,917.806,VALID,0,VALID,100,VALID,0,VALID,19.1767,VALID,177,VALID,0,
2009-01-04, 00:37:00,VALID,917.802,VALID,0,VALID,100,VALID,-0.0679233,VALID,19.1637,VALID,177,VALID,0,
2009-01-04, 00:38:00,VALID,917.777,VALID,0,VALID,100,VALID,-0.0169808,VALID,19.157,VALID,177,VALID,0,
2009-01-04, 00:39:00,VALID,917.775,VALID,0,VALID,100,VALID,-0.0509425,VALID,19.1216,VALID,177,VALID,0,
2009-01-04, 00:40:00,VALID,917.759,VALID,0,VALID,100,VALID,-0.0679233,VALID,19.0894,VALID,167,VALID,0,
2009-01-04, 00:41:00,VALID,917.755,VALID,0,VALID,100,VALID,-0.0169808,VALID,19.0697,VALID,76,VALID,0,
2009-01-04, 00:42:00,VALID,917.745,VALID,0,VALID,100,VALID,-0.0169808,VALID,19.05,VALID,74,VALID,0,
2009-01-04, 00:43:00,VALID,917.752,VALID,0,VALID,100,VALID,-0.0339617,VALID,19.0437,VALID,74,VALID,0,
2009-01-04, 00:44:00,VALID,917.759,VALID,0,VALID,100,VALID,-0.0339617,VALID,19.04,VALID,74,VALID,0,
2009-01-04, 00:45:00,VALID,917.752,VALID,0,VALID,100,VALID,-0.0339617,VALID,19.04,VALID,74,VALID,0,
2009-01-04, 00:46:00,VALID,917.746,VALID,0,VALID,100,VALID,-0.0339617,VALID,19.0467,VALID,74,VALID,0,
2009-01-04, 00:47:00,VALID,917.723,VALID,0,VALID,100,VALID,-0.0849042,VALID,19.0505,VALID,74,VALID,0,
2009-01-04, 00:48:00,VALID,917.72,VALID,0,VALID,100,VALID,-0.0169808,VALID,19.04,VALID,74,VALID,0,
2009-01-04, 00:49:00,VALID,917.709,VALID,0,VALID,100,VALID,-0.0169808,VALID,19.034,VALID,74,VALID,0,
2009-01-04, 00:50:00,VALID,917.697,VALID,0,VALID,100,VALID,-0.0509425,VALID,19.0243,VALID,74,VALID,0,
2009-01-04, 00:51:00,VALID,917.712,VALID,0,VALID,100,VALID,-0.0169808,VALID,19.0203,VALID,74,VALID,0,
2009-01-04, 00:52:00,VALID,917.712,VALID,0,VALID,100,VALID,0.0169808,VALID,19.0368,VALID,74,VALID,0,
2009-01-04, 00:53:00,VALID,917.703,VALID,0,VALID,100,VALID,-0.0339617,VALID,19.0467,VALID,74,VALID,0,
2009-01-04, 00:54:00,VALID,917.701,VALID,0,VALID,100,VALID,-0.0169808,VALID,19.0437,VALID,74,VALID,0,
2009-01-04, 00:55:00,VALID,917.661,VALID,0,VALID,100,VALID,-0.0509425,VALID,19.0467,VALID,74,VALID,0,
2009-01-04, 00:56:00,VALID,917.651,VALID,0,VALID,100,VALID,-0.0509425,VALID,19.0505,VALID,74,VALID,0,
2009-01-04, 00:57:00,VALID,917.626,VALID,0,VALID,100,VALID,-0.0339617,VALID,19.0595,VALID,74,VALID,0,
2009-01-04, 00:58:00,VALID,917.637,VALID,0,VALID,100,VALID,-0.0169808,VALID,19.0625,VALID,74,VALID,0,
2009-01-04, 00:59:00,VALID,917.662,VALID,0,VALID,100,VALID,0.0339617,VALID,19.0657,VALID,74,VALID,0,
2009-01-04, 01:00:00,VALID,917.673,VALID,0,VALID,100,VALID,-0.0339617,VALID,19.0817,VALID,74,VALID,0,
2009-01-04, 01:01:00,VALID,917.664,VALID,0,VALID,100,VALID,-0.0169808,VALID,19.1079,VALID,74,VALID,0,
2009-01-04, 01:02:00,VALID,917.655,VALID,0,VALID,100,VALID,0,VALID,19.0981,VALID,74,VALID,0,
2009-01-04, 01:03:00,VALID,917.65,VALID,0,VALID,100,VALID,-0.0169808,VALID,19.0894,VALID,74,VALID,0,
2009-01-04, 01:04:00,VALID,917.63,VALID,0,VALID,100,VALID,0,VALID,19.0565,VALID,74,VALID,0,
2009-01-04, 01:05:00,VALID,917.638,VALID,0,VALID,100,VALID,0,VALID,19.0011,VALID,74,VALID,0,
2009-01-04, 01:06:00,VALID,917.624,VALID,0,VALID,100,VALID,0.0169808,VALID,18.9584,VALID,74,VALID,0,
2009-01-04, 01:07:00,VALID,917.634,VALID,0,VALID,100,VALID,-0.0169808,VALID,18.9367,VALID,74,VALID,0,
2009-01-04, 01:08:00,VALID,917.648,VALID,0,VALID,100,VALID,0,VALID,18.907,VALID,74,VALID,0,
2009-01-04, 01:09:00,VALID,917.659,VALID,0,VALID,100,VALID,0,VALID,18.891,VALID,71,VALID,0,
2009-01-04, 01:10:00,VALID,917.677,VALID,0,VALID,100,VALID,0,VALID,18.8516,VALID,61,VALID,0,
2009-01-04, 01:11:00,VALID,917.705,VALID,0,VALID,100,VALID,0,VALID,18.8516,VALID,44,VALID,0,
2009-01-04, 01:12:00,VALID,917.723,VALID,0,VALID,100,VALID,-0.0169808,VALID,18.8319,VALID,43,VALID,0,
2009-01-04, 01:13:00,VALID,917.728,VALID,0,VALID,100,VALID,0,VALID,18.8095,VALID,43,VALID,0,
2009-01-04, 01:14:00,VALID,917.726,VALID,0,VALID,100,VALID,0,VALID,18.8129,VALID,43,VALID,0,
2009-01-04, 01:15:00,VALID,917.709,VALID,0,VALID,100,VALID,0,VALID,18.7967,VALID,43,VALID,0,
2009-01-04, 01:16:00,VALID,917.716,VALID,0,VALID,100,VALID,0,VALID,18.8027,VALID,43,VALID,0,
2009-01-04, 01:17:00,VALID,917.723,VALID,0,VALID,100,VALID,0,VALID,18.8224,VALID,43,VALID,0,
2009-01-04, 01:18:00,VALID,917.721,VALID,0,VALID,100,VALID,-0.0169808,VALID,18.8484,VALID,43,VALID,0,
2009-01-04, 01:19:00,VALID,917.72,VALID,0,VALID,100,VALID,0,VALID,18.8451,VALID,43,VALID,0,
2009-01-04, 01:20:00,VALID,917.71,VALID,0,VALID,100,VALID,-0.0169808,VALID,18.8386,VALID,43,VALID,0,
2009-01-04, 01:21:00,VALID,917.689,VALID,0,VALID,100,VALID,0,VALID,18.8032,VALID,43,VALID,0,
2009-01-04, 01:22:00,VALID,917.686,VALID,0,VALID,100,VALID,-0.0509425,VALID,18.7974,VALID,43,VALID,0,
2009-01-04, 01:23:00,VALID,917.688,VALID,0,VALID,100,VALID,-0.0509425,VALID,18.7675,VALID,43,VALID,0,
2009-01-04, 01:24:00,VALID,917.704,VALID,0,VALID,100,VALID,-0.0339617,VALID,18.7478,VALID,43,VALID,0,
2009-01-04, 01:25:00,VALID,917.697,VALID,0,VALID,100,VALID,-0.0509425,VALID,18.7319,VALID,79,VALID,0,
2009-01-04, 01:26:00,VALID,917.695,VALID,0,VALID,100,VALID,-0.0339617,VALID,18.7091,VALID,89,VALID,0,
2009-01-04, 01:27:00,VALID,917.688,VALID,0,VALID,100,VALID,-0.0339617,VALID,18.6899,VALID,89,VALID,0,
2009-01-04, 01:28:00,VALID,917.685,VALID,0,VALID,100,VALID,-0.0339617,VALID,18.6542,VALID,93,VALID,0,
2009-01-04, 01:29:00,VALID,917.679,VALID,0,VALID,100,VALID,-0.0169808,VALID,18.654,VALID,108,VALID,0,
2009-01-04, 01:30:00,VALID,917.673,VALID,0,VALID,100,VALID,-0.0339617,VALID,18.6605,VALID,118,VALID,0,
2009-01-04, 01:31:00,VALID,917.672,VALID,0,VALID,100,VALID,-0.0509425,VALID,18.6573,VALID,121,VALID,0,
2009-01-04, 01:32:00,VALID,917.656,VALID,0,VALID,100,VALID,-0.0339617,VALID,18.6737,VALID,122,VALID,0,
2009-01-04, 01:33:00,VALID,917.652,VALID,0,VALID,100,VALID,-0.0169808,VALID,18.6862,VALID,122,VALID,0,
2009-01-04, 01:34:00,VALID,917.619,VALID,0,VALID,100,VALID,-0.0339617,VALID,18.6698,VALID,122,VALID,0,
2009-01-04, 01:35:00,VALID,917.602,VALID,0,VALID,100,VALID,-0.0339617,VALID,18.6568,VALID,122,VALID,0,
2009-01-04, 01:36:00,VALID,917.6,VALID,0,VALID,100,VALID,0,VALID,18.6698,VALID,122,VALID,0,
2009-01-04, 01:37:00,VALID,917.602,VALID,0,VALID,100,VALID,-0.0509425,VALID,18.6735,VALID,122,VALID,0,
2009-01-04, 01:38:00,VALID,917.583,VALID,0,VALID,100,VALID,0,VALID,18.6181,VALID,122,VALID,0,
2009-01-04, 01:39:01,VALID,917.564,VALID,0,VALID,100,VALID,-0.0169808,VALID,18.5595,VALID,122,VALID,0,
2009-01-04, 01:40:00,VALID,917.55,VALID,0,VALID,100,VALID,0,VALID,18.5136,VALID,122,VALID,0,
2009-01-04, 01:41:00,VALID,917.521,VALID,0,VALID,100,VALID,-0.0169808,VALID,18.5076,VALID,122,VALID,0,
2009-01-04, 01:42:01,VALID,917.496,VALID,0,VALID,100,VALID,0,VALID,18.5041,VALID,122,VALID,0,
2009-01-04, 01:43:00,VALID,917.471,VALID,0,VALID,100,VALID,-0.0169808,VALID,18.4782,VALID,122,VALID,0,
2009-01-04, 01:44:00,VALID,917.452,VALID,0,VALID,100,VALID,-0.0339617,VALID,18.3876,VALID,122,VALID,0,
2009-01-04, 01:45:01,VALID,917.413,VALID,0,VALID,100,VALID,-0.0679233,VALID,18.3063,VALID,122,VALID,0,
2009-01-04, 01:46:01,VALID,917.367,VALID,0,VALID,100,VALID,-0.0339617,VALID,18.3911,VALID,122,VALID,0,
2009-01-04, 01:47:00,VALID,917.361,VALID,0,VALID,100,VALID,-0.0169808,VALID,18.4569,VALID,122,VALID,0,
2009-01-04, 01:48:00,VALID,917.331,VALID,0,VALID,100,VALID,-0.0509425,VALID,18.4307,VALID,122,VALID,0,
2009-01-04, 01:49:00,VALID,917.327,VALID,0,VALID,100,VALID,-0.0339617,VALID,18.3816,VALID,122,VALID,0,
2009-01-04, 01:50:00,VALID,917.316,VALID,0,VALID,100,VALID,0,VALID,18.3422,VALID,122,VALID,0,
2009-01-04, 01:51:00,VALID,917.291,VALID,0,VALID,100,VALID,-0.0339617,VALID,18.3262,VALID,122,VALID,0,
2009-01-04, 01:52:00,VALID,917.256,VALID,0,VALID,100,VALID,-0.0339617,VALID,18.3459,VALID,122,VALID,0,
2009-01-04, 01:53:00,VALID,917.235,VALID,0,VALID,100,VALID,-0.0679233,VALID,18.3067,VALID,122,VALID,0,
2009-01-04, 01:54:01,VALID,917.221,VALID,0,VALID,100,VALID,-0.0509425,VALID,18.294,VALID,122,VALID,0,
2009-01-04, 01:55:01,VALID,917.213,VALID,0,VALID,100,VALID,-0.0679233,VALID,18.2972,VALID,122,VALID,0,
2009-01-04, 01:56:01,VALID,917.205,VALID,0,VALID,100,VALID,-0.0339617,VALID,18.3169,VALID,122,VALID,0,
2009-01-04, 01:57:00,VALID,917.178,VALID,0,VALID,100,VALID,-0.0509425,VALID,18.3559,VALID,122,VALID,0,
2009-01-04, 01:58:00,VALID,917.176,VALID,0,VALID,100,VALID,-0.0339617,VALID,18.3651,VALID,122,VALID,0,
2009-01-04, 01:59:00,VALID,917.166,VALID,0,VALID,100,VALID,0,VALID,18.3881,VALID,122,VALID,0,
2009-01-04, 02:00:00,VALID,917.163,VALID,0,VALID,100,VALID,-0.0679233,VALID,18.3816,VALID,122,VALID,0,
2009-01-04, 02:01:00,VALID,917.155,VALID,0,VALID,100,VALID,-0.0679233,VALID,18.3626,VALID,122,VALID,0,
2009-01-04, 02:02:00,VALID,917.163,VALID,0,VALID,100,VALID,-0.0849042,VALID,18.3526,VALID,122,VALID,0,
2009-01-04, 02:03:01,VALID,917.168,VALID,0,VALID,100,VALID,-0.0509425,VALID,18.3498,VALID,122,VALID,0,
2009-01-04, 02:04:01,VALID,917.174,VALID,0,VALID,100,VALID,-0.0339617,VALID,18.3394,VALID,122,VALID,0,
2009-01-04, 02:05:00,VALID,917.158,VALID,0,VALID,100,VALID,-0.0849042,VALID,18.3396,VALID,122,VALID,0,
2009-01-04, 02:06:01,VALID,917.132,VALID,0,VALID,100,VALID,-0.101885,VALID,18.3556,VALID,122,VALID,0,
2009-01-04, 02:07:01,VALID,917.126,VALID,0,VALID,100,VALID,-0.0339617,VALID,18.3654,VALID,122,VALID,0.0346236,
2009-01-04, 02:08:01,VALID,917.123,VALID,0,VALID,100,VALID,-0.0849042,VALID,18.382,VALID,122,VALID,0,
2009-01-04, 02:09:00,VALID,917.137,VALID,0,VALID,100,VALID,-0.0169808,VALID,18.3753,VALID,122,VALID,0,
2009-01-04, 02:10:00,VALID,917.137,VALID,0,VALID,100,VALID,-0.0339617,VALID,18.3297,VALID,122,VALID,0,
2009-01-04, 02:11:00,VALID,917.122,VALID,0,VALID,100,VALID,-0.0169808,VALID,18.2938,VALID,122,VALID,0,
2009-01-04, 02:12:01,VALID,917.147,VALID,0,VALID,100,VALID,-0.0169808,VALID,18.2352,VALID,122,VALID,0,
2009-01-04, 02:13:00,VALID,917.152,VALID,0,VALID,100,VALID,0,VALID,18.1935,VALID,122,VALID,0,
2009-01-04, 02:14:01,VALID,917.159,VALID,0,VALID,100,VALID,-0.0169808,VALID,18.1833,VALID,122,VALID,0,
2009-01-04, 02:15:00,VALID,917.135,VALID,0,VALID,100,VALID,-0.0339617,VALID,18.2164,VALID,122,VALID,0,
2009-01-04, 02:16:01,VALID,917.113,VALID,0,VALID,100,VALID,-0.0169808,VALID,18.2484,VALID,122,VALID,0,
2009-01-04, 02:17:00,VALID,917.099,VALID,0,VALID,100,VALID,0,VALID,18.2553,VALID,122,VALID,0,
2009-01-04, 02:18:00,VALID,917.087,VALID,0,VALID,100,VALID,-0.0169808,VALID,18.1029,VALID,122,VALID,0,
2009-01-04, 02:19:01,VALID,917.079,VALID,0,VALID,100,VALID,-0.0339617,VALID,17.9243,VALID,122,VALID,0,
2009-01-04, 02:20:00,VALID,917.078,VALID,0,VALID,100,VALID,-0.0169808,VALID,17.8592,VALID,122,VALID,0,
2009-01-04, 02:21:01,VALID,917.09,VALID,0,VALID,100,VALID,0,VALID,17.8986,VALID,122,VALID,0,
2009-01-04, 02:22:01,VALID,917.087,VALID,0,VALID,100,VALID,-0.0169808,VALID,17.9537,VALID,122,VALID,0,
2009-01-04, 02:23:01,VALID,917.109,VALID,0,VALID,100,VALID,0,VALID,17.9632,VALID,122,VALID,0,
2009-01-04, 02:24:00,VALID,917.093,VALID,0,VALID,100,VALID,-0.0169808,VALID,17.9762,VALID,122,VALID,0,
2009-01-04, 02:25:01,VALID,917.054,VALID,0,VALID,100,VALID,0.0169808,VALID,17.9788,VALID,122,VALID,0,
2009-01-04, 02:26:01,VALID,917.018,VALID,0,VALID,100,VALID,0,VALID,17.9987,VALID,122,VALID,0,
2009-01-04, 02:27:01,VALID,916.982,VALID,0,VALID,100,VALID,-0.0339617,VALID,18.054,VALID,122,VALID,0,
2009-01-04, 02:28:01,VALID,916.967,VALID,0,VALID,100,VALID,-0.0679233,VALID,18.0475,VALID,122,VALID,0,
2009-01-04, 02:29:01,VALID,916.959,VALID,0,VALID,100,VALID,0,VALID,18.051,VALID,122,VALID,0,
2009-01-04, 02:30:01,VALID,916.951,VALID,0,VALID,100,VALID,-0.0339617,VALID,18.0573,VALID,122,VALID,0,
2009-01-04, 02:31:01,VALID,916.939,VALID,0,VALID,100,VALID,-0.0339617,VALID,18.0897,VALID,122,VALID,0,
2009-01-04, 02:32:00,VALID,916.926,VALID,0,VALID,100,VALID,-0.0339617,VALID,18.1837,VALID,122,VALID,0,
2009-01-04, 02:33:00,VALID,916.893,VALID,0,VALID,100,VALID,0,VALID,18.2875,VALID,122,VALID,0,
2009-01-04, 02:34:00,VALID,916.884,VALID,0,VALID,100,VALID,-0.0339617,VALID,18.2845,VALID,121,VALID,0,
2009-01-04, 02:35:00,VALID,916.881,VALID,0,VALID,100,VALID,-0.0169808,VALID,18.2713,VALID,121,VALID,0,
2009-01-04, 02:36:00,VALID,916.879,VALID,0,VALID,100,VALID,-0.0169808,VALID,18.2583,VALID,121,VALID,0,
2009-01-04, 02:37:00,VALID,916.884,VALID,0,VALID,100,VALID,0,VALID,18.2618,VALID,121,VALID,0,
2009-01-04, 02:38:00,VALID,916.876,VALID,0,VALID,100,VALID,-0.0509425,VALID,18.2618,VALID,121,VALID,0,
2009-01-04, 02:39:00,VALID,916.867,VALID,0,VALID,100,VALID,-0.0169808,VALID,18.2808,VALID,121,VALID,0,
2009-01-04, 02:40:00,VALID,916.854,VALID,0,VALID,100,VALID,-0.0339617,VALID,18.3304,VALID,121,VALID,0,
2009-01-04, 02:41:00,VALID,916.835,VALID,0,VALID,100,VALID,0,VALID,18.3169,VALID,121,VALID,0,
2009-01-04, 02:42:00,VALID,916.799,VALID,0,VALID,100,VALID,-0.0339617,VALID,18.2451,VALID,121,VALID,0,
2009-01-04, 02:43:00,VALID,916.792,VALID,0,VALID,100,VALID,-0.0339617,VALID,18.3332,VALID,121,VALID,0,
2009-01-04, 02:44:00,VALID,916.789,VALID,0,VALID,100,VALID,-0.0339617,VALID,18.404,VALID,121,VALID,0,
2009-01-04, 02:45:00,VALID,916.789,VALID,0,VALID,100,VALID,-0.0339617,VALID,18.4235,VALID,121,VALID,0,
2009-01-04, 02:46:00,VALID,916.785,VALID,0,VALID,100,VALID,0,VALID,18.4205,VALID,121,VALID,0,
2009-01-04, 02:47:00,VALID,916.784,VALID,0,VALID,100,VALID,-0.0169808,VALID,18.3976,VALID,121,VALID,0,
2009-01-04, 02:48:00,VALID,916.772,VALID,0,VALID,100,VALID,-0.0339617,VALID,18.3454,VALID,121,VALID,0,
2009-01-04, 02:49:00,VALID,916.739,VALID,0,VALID,100,VALID,0,VALID,18.2935,VALID,121,VALID,0,
2009-01-04, 02:50:00,VALID,916.716,VALID,0,VALID,100,VALID,0,VALID,18.2546,VALID,121,VALID,0,
2009-01-04, 02:51:00,VALID,916.709,VALID,0,VALID,100,VALID,0,VALID,18.2875,VALID,121,VALID,0,
2009-01-04, 02:52:00,VALID,916.7,VALID,0,VALID,100,VALID,-0.0169808,VALID,18.3167,VALID,121,VALID,0,
2009-01-04, 02:53:00,VALID,916.714,VALID,0,VALID,100,VALID,0,VALID,18.329,VALID,121,VALID,0,
2009-01-04, 02:54:00,VALID,916.729,VALID,0,VALID,100,VALID,-0.0509425,VALID,18.3389,VALID,121,VALID,0,
2009-01-04, 02:55:00,VALID,916.735,VALID,0,VALID,100,VALID,-0.0169808,VALID,18.2808,VALID,121,VALID,0,
2009-01-04, 02:56:00,VALID,916.757,VALID,0,VALID,100,VALID,0,VALID,18.2125,VALID,121,VALID,0,
2009-01-04, 02:57:00,VALID,916.755,VALID,0,VALID,100,VALID,0,VALID,18.1803,VALID,121,VALID,0,
2009-01-04, 02:58:00,VALID,916.754,VALID,0,VALID,100,VALID,0,VALID,18.1705,VALID,121,VALID,0,
2009-01-04, 02:59:00,VALID,916.744,VALID,0,VALID,100,VALID,-0.0339617,VALID,18.1736,VALID,121,VALID,0,
2009-01-04, 03:00:00,VALID,916.732,VALID,0,VALID,100,VALID,0,VALID,18.2157,VALID,121,VALID,0,
2009-01-04, 03:01:00,VALID,916.727,VALID,0,VALID,100,VALID,0,VALID,18.2479,VALID,121,VALID,0,
2009-01-04, 03:02:00,VALID,916.707,VALID,0,VALID,100,VALID,0,VALID,18.1995,VALID,121,VALID,0,
2009-01-04, 03:03:00,VALID,916.687,VALID,0,VALID,100,VALID,-0.0339617,VALID,18.1087,VALID,121,VALID,0,
2009-01-04, 03:04:00,VALID,916.678,VALID,0,VALID,100,VALID,-0.0339617,VALID,18.0568,VALID,121,VALID,0,
2009-01-04, 03:05:00,VALID,916.67,VALID,0,VALID,100,VALID,-0.0339617,VALID,18.0084,VALID,132,VALID,0,
2009-01-04, 03:06:00,VALID,916.676,VALID,0,VALID,100,VALID,-0.0339617,VALID,18.0084,VALID,140,VALID,0,
2009-01-04, 03:07:00,VALID,916.682,VALID,0,VALID,100,VALID,-0.0509425,VALID,18.0378,VALID,147,VALID,0,
2009-01-04, 03:08:00,VALID,916.674,VALID,0,VALID,100,VALID,-0.0509425,VALID,18.1124,VALID,152,VALID,0,
2009-01-04, 03:09:00,VALID,916.684,VALID,0,VALID,100,VALID,-0.0169808,VALID,18.1414,VALID,152,VALID,0,
2009-01-04, 03:10:00,VALID,916.685,VALID,0,VALID,100,VALID,-0.0339617,VALID,18.18,VALID,152,VALID,0,
2009-01-04, 03:11:00,VALID,916.662,VALID,0,VALID,100,VALID,-0.0339617,VALID,18.2222,VALID,155,VALID,0,
2009-01-04, 03:12:00,VALID,916.631,VALID,0,VALID,100,VALID,-0.0169808,VALID,18.2386,VALID,150,VALID,0.113009,
2009-01-04, 03:13:00,VALID,916.631,VALID,0,VALID,100,VALID,0.0169808,VALID,18.2382,VALID,144,VALID,0,
2009-01-04, 03:14:00,VALID,916.623,VALID,0,VALID,100,VALID,-0.0169808,VALID,18.2412,VALID,134,VALID,0.026456,
2009-01-04, 03:15:00,VALID,916.612,VALID,0,VALID,100,VALID,0,VALID,18.2449,VALID,123,VALID,0.10973,
2009-01-04, 03:16:00,VALID,916.603,VALID,0,VALID,100,VALID,-0.0169808,VALID,18.2451,VALID,121,VALID,0.0833939,
2009-01-04, 03:17:00,VALID,916.608,VALID,0,VALID,100,VALID,0,VALID,18.2352,VALID,124,VALID,0,
2009-01-04, 03:18:00,VALID,916.615,VALID,0,VALID,100,VALID,0,VALID,18.206,VALID,128,VALID,0,
2009-01-04, 03:19:00,VALID,916.603,VALID,0,VALID,100,VALID,0.0169808,VALID,18.1604,VALID,129,VALID,0,
2009-01-04, 03:20:00,VALID,916.564,VALID,0,VALID,100,VALID,-0.0169808,VALID,18.1444,VALID,129,VALID,0.0844494,
2009-01-04, 03:21:00,VALID,916.554,VALID,0,VALID,100,VALID,0,VALID,18.1671,VALID,130,VALID,0.0415483,
2009-01-04, 03:22:00,VALID,916.549,VALID,0,VALID,100,VALID,-0.0169808,VALID,18.1703,VALID,138,VALID,0,
2009-01-04, 03:23:00,VALID,916.552,VALID,0,VALID,100,VALID,-0.0169808,VALID,18.1733,VALID,144,VALID,0,
2009-01-04, 03:24:00,VALID,916.549,VALID,0,VALID,100,VALID,-0.0339617,VALID,18.2162,VALID,144,VALID,0,
2009-01-04, 03:25:00,VALID,916.543,VALID,0,VALID,100,VALID,0,VALID,18.2449,VALID,143,VALID,0,
2009-01-04, 03:26:00,VALID,916.545,VALID,0,VALID,100,VALID,0,VALID,18.2257,VALID,139,VALID,0,
2009-01-04, 03:27:00,VALID,916.526,VALID,0,VALID,100,VALID,-0.0169808,VALID,18.2092,VALID,135,VALID,0,
2009-01-04, 03:28:00,VALID,916.497,VALID,0,VALID,100,VALID,-0.0169808,VALID,18.2382,VALID,132,VALID,0,
2009-01-04, 03:29:00,VALID,916.483,VALID,0,VALID,100,VALID,-0.0169808,VALID,18.2706,VALID,132,VALID,0,
2009-01-04, 03:30:00,VALID,916.487,VALID,0,VALID,100,VALID,0,VALID,18.2966,VALID,132,VALID,0,
2009-01-04, 03:31:00,VALID,916.515,VALID,0,VALID,100,VALID,-0.0169808,VALID,18.3065,VALID,132,VALID,0,
2009-01-04, 03:32:00,VALID,916.522,VALID,0,VALID,100,VALID,0,VALID,18.3193,VALID,132,VALID,0,
2009-01-04, 03:33:00,VALID,916.526,VALID,0,VALID,100,VALID,0,VALID,18.316,VALID,132,VALID,0,
2009-01-04, 03:34:00,VALID,916.53,VALID,0,VALID,100,VALID,-0.0339617,VALID,18.2544,VALID,132,VALID,0,
2009-01-04, 03:35:00,VALID,916.521,VALID,0,VALID,100,VALID,0,VALID,18.2581,VALID,132,VALID,0,
2009-01-04, 03:36:00,VALID,916.516,VALID,0,VALID,100,VALID,0,VALID,18.2676,VALID,132,VALID,0,
2009-01-04, 03:37:00,VALID,916.51,VALID,0,VALID,100,VALID,-0.0169808,VALID,18.2579,VALID,132,VALID,0,
2009-01-04, 03:38:00,VALID,916.509,VALID,0,VALID,100,VALID,-0.0169808,VALID,18.2706,VALID,132,VALID,0,
2009-01-04, 03:39:00,VALID,916.519,VALID,0,VALID,100,VALID,-0.0169808,VALID,18.3033,VALID,132,VALID,0,
2009-01-04, 03:40:00,VALID,916.52,VALID,0,VALID,100,VALID,0,VALID,18.3098,VALID,132,VALID,0,
2009-01-04, 03:41:00,VALID,916.517,VALID,0,VALID,100,VALID,0,VALID,18.316,VALID,132,VALID,0,
2009-01-04, 03:42:00,VALID,916.517,VALID,0,VALID,100,VALID,-0.0169808,VALID,18.3262,VALID,122,VALID,0.149858,
2009-01-04, 03:43:00,VALID,916.527,VALID,0,VALID,100,VALID,0,VALID,18.3162,VALID,112,VALID,0,
2009-01-04, 03:44:00,VALID,916.532,VALID,0,VALID,100,VALID,-0.0169808,VALID,18.2998,VALID,112,VALID,0,
2009-01-04, 03:45:00,VALID,916.53,VALID,0,VALID,100,VALID,-0.0169808,VALID,18.2778,VALID,112,VALID,0,
2009-01-04, 03:46:00,VALID,916.512,VALID,0,VALID,100,VALID,-0.0339617,VALID,18.2423,VALID,95,VALID,0.107143,
2009-01-04, 03:47:00,VALID,916.522,VALID,0,VALID,100,VALID,0,VALID,18.209,VALID,86,VALID,0.0578835,
2009-01-04, 03:48:00,VALID,916.524,VALID,0,VALID,100,VALID,0,VALID,18.2162,VALID,86,VALID,0,
2009-01-04, 03:49:00,VALID,916.539,VALID,0,VALID,100,VALID,-0.0169808,VALID,18.2122,VALID,86,VALID,0,
2009-01-04, 03:50:00,VALID,916.549,VALID,0,VALID,100,VALID,0,VALID,18.2025,VALID,86,VALID,0,
2009-01-04, 03:51:00,VALID,916.558,VALID,0,VALID,100,VALID,0,VALID,18.1928,VALID,86,VALID,0,
2009-01-04, 03:52:00,VALID,916.568,VALID,0,VALID,100,VALID,0,VALID,18.1898,VALID,86,VALID,0,
2009-01-04, 03:53:00,VALID,916.578,VALID,0,VALID,100,VALID,0,VALID,18.2127,VALID,91,VALID,0,